Location: Franzen
(48.6167°N, 15.3833°E)
Time: 09:36:02
(UTC+00:00)

Altair - Pass Details

Date: 06 August 2021
Orbit: 1501 x 1682 km, 47.2° (Epoch: 20 September)

Event Time Altitude Azimuth Distance (km) Brightness Sun altitude
Rises 03:59:58 0° 283° (WNW) 4,693 9.5 2.2°
Reaches altitude 10° 04:03:04 10° 281° (W) 3,692 9.0 2.7°
Maximum altitude 04:12:11 66° 202° (SSW) 1,620 7.6 4.1°
Drops below altitude 10° 04:21:12 10° 123° (ESE) 3,653 10.1 5.5°
Sets 04:24:15 0° 121° (ESE) 4,641 10.7 6.0°
